Regional Weather Roundup
Issued by NWS Kansas City/Pleasant Hill, MO

Home | Current Version | Previous Version | Text Only | Print | Product List | Glossary On
Versions: 1 2 3 4 5 6 7 8 9 10 11 12 13 14 15 16 17 18 19 20 21 22 23 24 25 26 27 28 29 30 31 32 33 34 35 36 37 38 39 40 41 42 43 44 45 46 47 48 49 50
000
ASUS43 KEAX 112210
RWREAX

WEATHER ROUNDUP FOR EASTERN KANSAS AND NORTHWEST MISSOURI
NATIONAL WEATHER SERVICE KANSAS CITY/PLEASANT HILL MO
400 PM CST THU FEB 11 2016

KSZ040-057-103>105-MOZ028-029-037-043-112300-
...KANSAS CITY METROPOLITAN AREA...

CITY           SKY/WX    TMP DP  RH WIND       PRES   REMARKS
K.C. INTL      PTSUNNY   35  21  56 SE9       30.20S WCI  28
K.C. DOWNTOWN  MOSUNNY   37  20  50 VRB3      30.22R
LEES SUMMIT    MOSUNNY   35  20  54 SE3       30.21S
OLATHE - IXD   MOSUNNY   38  22  52 S6        30.20F WCI  33
OLATHE - OJC   MOSUNNY   37  21  52 E6        30.20S WCI  32
LAWRENCE       CLOUDY    38  22  52 S3        30.21R

$$

MOZ001>008-011>017-020>025-030>033-038>040-044>046-053-054-112300-
...NORTHERN AND CENTRAL MISSOURI...

CITY           SKY/WX    TMP DP  RH WIND       PRES   REMARKS
ST. JOSEPH     CLOUDY    34  19  54 S6        30.21S WCI  29
MOSBY          PTCLDY    34  21  60 SE5       30.23R WCI  30
WARRENSBURG    CLOUDY    36  21  55 E7        30.20F WCI  30
WHITEMAN AFB   CLOUDY    37  19  48 E3        30.20F
CLINTON          N/A     39  23  52 CALM      30.21F
SEDALIA        PTSUNNY   37  18  46 E8        30.23F WCI  31
WARSAW         NOT AVBL
CHILLICOTHE      N/A     30  15  53 E6        30.24F WCI  24
KIRKSVILLE     CLOUDY    23   9  55 SE8       30.25F WCI  14

$$

MOZ041-047>049-056>058-063>065-088>090-097-112300-
...EASTERN AND SOUTHERN MISSOURI...

CITY           SKY/WX    TMP DP  RH WIND       PRES   REMARKS
ST. LOUIS INTL CLOUDY    30  10  43 NE6       30.29S WCI  24
SPIRIT OF STL  SUNNY     30  10  43 NE6       30.29S WCI  24
COLUMBIA       PTSUNNY   33  18  53 E6        30.24S WCI  28
JEFFERSON CITY CLOUDY    35  20  54 SE9       30.25F WCI  28
ROLLA          MOSUNNY   36  21  54 NE6       30.21R WCI  31
OSAGE BEACH    MOSUNNY   39  19  45 NE6       30.22F WCI  35
SPRINGFIELD    MOSUNNY   46  18  32 N7        30.17R
BRANSON        PTSUNNY   46  19  34 E8        30.17R
JOPLIN         PTSUNNY   47  23  38 NE8       30.18S
WEST PLAINS    SUNNY     45  17  32 NE5       30.18R

$$

IAZ060-094-KSZ022-034>040-054-083-096-NEZ052-066-093-112300-
...KANSAS...SOUTHEAST NEBRASKA AND IOWA...

CITY           SKY/WX    TMP DP  RH WIND       PRES   REMARKS
TOPEKA         CLOUDY    39  21  48 CALM      30.20R
MANHATTAN      CLOUDY    40  24  53 CALM      30.17F
EMPORIA        MOSUNNY   41  23  48 SW3       30.16S
CHANUTE        MOSUNNY   45  24  43 E7        30.16F
WICHITA        PTSUNNY   47  25  42 SW6       30.15F
OMAHA          CLOUDY    26  18  71 CALM      30.19S
LINCOLN        CLOUDY    28  22  78 SW12      30.17R WCI  18
FALLS CITY     PTSUNNY   36  21  54 S10       30.17F WCI  28
LAMONI         CLOUDY    26   8  46 SE6       30.21R WCI  19
DES MOINES     FLURRIES  21   1  41 SE8       30.25S WCI  11

$$





USA.gov is the U.S. government's official web portal to all federal, state and local government web resources and services.